Weather Roundup
Issued by NWS

Home | Current Version | Previous Version | Graphics & Text | Print | Product List | Glossary Off
Versions: 1 2 3 4 5 6 7 8 9 10 11 12 13 14 15 16 17 18 19 20 21 22 23 24 25 26 27 28 29 30 31 32 33 34 35 36 37 38 39 40 41 42 43 44 45 46 47 48 49 50

000
NZUS93 KARX 191910
HRRWXR

CURRENT HOURLY OBSERVATIONS ACROSS
MUCH OF THE UPPER MISSISSIPPI VALLEY
NATIONAL WEATHER SERVICE LA CROSSE WI
200 PM CDT SUN APR 19 2015


...SOUTHEAST MINNESOTA...


CITY           SKY/WX    TMP DP  RH WIND       PRES   REMARKS
ROCHESTER      CLOUDY    61  53  75 CALM      29.62F
ROCHESTER/MAYO CLOUDY    61  53  74 E3        29.61F
WINONA         CLOUDY    61  45  55 SE9       29.63F
AUSTIN         PTSUNNY   61  54  77 CALM      29.60F
ALBERT LEA     LGT RAIN  59  57  94 NW6       29.61F
DODGE CENTER   PTSUNNY   63  55  77 SE5       29.61F
PRESTON        CLOUDY    59  51  74 CALM      29.63F
OWATONNA       LGT RAIN  57  54  88 NW14      29.62F
FARIBAULT      DRIZZLE   55  52  88 W13G23    29.63S
$$

...ELSEWHERE IN MINNESOTA...


CITY           SKY/WX    TMP DP  RH WIND       PRES   REMARKS
MINNEAPOLIS    CLOUDY    59  53  80 W14       29.61F
INTNL FALLS    CLOUDY    43  40  89 SW6       29.60S
DULUTH         LGT RAIN  39  38  96 SE8       29.61S VSB 1/2 WCI  33
RED WING       CLOUDY    64  52  63 SE5       29.60F
REDWOOD FALLS  CLOUDY    53  44  71 NW16G29   29.70R
MANKATO        CLOUDY    55  45  67 NW20G25   29.65F
WORTHINGTON    CLOUDY    48  43  81 NW26G35   29.72F
FAIRMONT       CLOUDY    54  45  71 NW24      29.65F
$$

...SOUTHWEST WISCONSIN...


CITY           SKY/WX    TMP DP  RH WIND       PRES   REMARKS
LA CROSSE      LGT RAIN  55  46  71 NW5       29.64F
PRAIRIE DU CHI CLOUDY    67  42  40 NW6       29.60F
BOSCOBEL       CLOUDY    73  42  32 CALM      29.60F
LONE ROCK      CLOUDY    72  44  36 E9        29.61F
PLATTEVILLE    PTSUNNY   73  43  34 S3        29.59F
FORT MC COY    CLOUDY    63  38  39 CALM      29.64F
CAMP DOUGLAS   CLOUDY    68  39  34 VRB5      29.63F
VIROQUA        FAIR      62  40  44 SE3       29.63F
WIS DELLS      CLOUDY    70  39  31 SE7       29.63F
$$

...ELSEWHERE IN WISCONSIN...


CITY           SKY/WX    TMP DP  RH WIND       PRES   REMARKS
MILWAUKEE      PTSUNNY   55  36  48 NE7       29.70F
MADISON        CLOUDY    73  41  31 E16       29.62F
GREEN BAY      MOSUNNY   65  36  34 SE13      29.73F
EAU CLAIRE     CLOUDY    56  42  59 SE10      29.64F
BLACK RVR FLS  FAIR      58  41  53 NW3       29.64F
MEDFORD        CLOUDY    58  39  49 SE10      29.66F
WAUSAU         CLOUDY    63  36  36 SE9       29.66F
WIS RAPIDS     CLOUDY    69  35  28 SE12      29.66F
MARSHFIELD     CLOUDY    66  38  35 SE12      29.65F
RICE LAKE      CLOUDY    55  42  61 SE8       29.64F
$$

...NORTHEAST IOWA...


CITY           SKY/WX    TMP DP  RH WIND       PRES   REMARKS
DECORAH        CLOUDY    55  48  76 CALM      29.62F
MASON CITY     CLOUDY    62  55  77 E5        29.61F
CHARLES CITY   CLOUDY    63  59  88 VRB5      29.61F
OELWEIN        CLOUDY    61  54  77 SE6       29.61F
$$

...ELSEWHERE IN IOWA...


CITY           SKY/WX    TMP DP  RH WIND       PRES   REMARKS
DES MOINES     CLOUDY    64  57  78 NW9       29.57F
IOWA CITY      PTSUNNY   71  53  52 N7        29.57F
FORT DODGE     CLOUDY    59  54  82 NW7       29.62F
$$

...NORTHERN ILLINOIS...


CITY           SKY/WX    TMP DP  RH WIND       PRES   REMARKS
CHICAGO-OHARE  PTSUNNY   67  38  34 E13       29.63F
CHICAGO-MIDWAY CLOUDY    66  41  40 E10       29.62F
MOLINE         MOSUNNY   78  48  34 E12       29.54F
ROCKFORD       CLOUDY    73  42  32 SE16G23   29.61F
PEORIA         LGT RAIN  63  53  70 E5        29.58F
$$

NOTE: "FAIR" INDICATES FEW OR NO CLOUDS BELOW 12,000 FEET WITH NO
SIGNIFICANT WEATHER AND/OR OBSTRUCTIONS TO VISIBILITY. WIND
SPEEDS ARE IN MILES-PER-HOUR.



USA.gov is the U.S. government's official web portal to all federal, state and local government web resources and services.